Terug naar catalogus

STARLINK-36772

ActiefCommunicatieSSO
NORAD 67721·PAYLOAD·🇺🇸 United States

Gelanceerd Feb 11, 2026 vanaf Vandenberg Space Force Base

Loading…

Volgende Passages (komende 24 uur)

TLE

VersSource: CelesTrak SupGP

Epoch: Sep 15, 2026, 03:02 UTC

1 67721C 26026A   26258.12687500  .00006763  00000+0  20960-3 0  2580
2 67721  97.2848 309.9625 0000683  84.8944 228.6840 15.33487866    13

Volg STARLINK-36772 in realtime met AllMySat

Download on the App Store